Pagina principală
METAR-TAF:

METAR-TAF

Aeroporturi :

Normanton, Australia

Latitudine: 17-41-06S, longitudine: 141-04-12E, elevație: 22 m

Observații meteo curente

Raportul a fost făcut în urmă cu 3 ore și 18 de minute, la 09:00 UTC
Vânt 24 kt de la Sud cu rafale de până la 35 kt
Temperatură 24°C
Umiditate 54%
Presiune 1013 hPa
Vizibilitate de 10 km sau mai mult

METAR: YNTN 280900Z AUTO 17024G35KT 9999 // NCD 24/14 Q1013

Ora: 22:18 (12:18 UTC)


TAF: lipsă

Observații și prognoze meteo pentru peste 4.000 de aeroporturi (rapoarte METAR și TAF).

Stațiile disponibile sunt reprezentate pe hartă prin puncte galbene și roșii.

Țineți indicatorul mouse-ului pe punctul dorit pentru a vedea denumirea stației.

Apoi, faceți clic pentru a vedea observațiile și prognozele meteorologice.

Pentru a schimba harta: Pentru mărire, faceți clic pe butoanele verzi cu cruce neagră; pentru micșorare, pe butonul verde cu o liniuță; pentru hărți învecinate, pe săgețile verzi.


METAR-TAF: